This demonstration page uses our WeatherBlox Daily Observations layout. Learn more.

Left ArrowRight Arrow

34.74481, -87.66753

Hourly Observations for August 12, 2015

Temp ( °F °C ) Dew Point ( °F °C ) Humidity (%) Winds ( mph kmh ) Pressure ( in mb ) Visibility ( mi km ) Precip ( " mm )
12:53 am 00:53 Clear 76 24.4 69 20.6 79 79 VRB 5 7 30.03 1017 10 16 0.00 0.00
1:53 am 01:53 Clear 75 23.9 68 20 79 79 N 3 6 30.03 1017 10 16 0.00 0.00
2:53 am 02:53 Clear 74 23.3 67 19.4 79 79 N 5 7 30.03 1017 10 16 0.00 0.00
3:53 am 03:53 Clear 73 22.8 67 19.4 81 81 VRB 3 6 30.02 1017 10 16 0.00 0.00
4:53 am 04:53 Clear 72 22.2 67 19.4 84 84 VRB 3 6 30.02 1017 10 16 0.00 0.00
5:53 am 05:53 Clear 72 22.2 66 18.9 82 82 NNE 3 6 30.04 1017 10 16 0.00 0.00
6:53 am 06:53 Sunny 72 22.2 66 18.9 82 82 Calm 30.06 1018 9 14 0.00 0.00
7:53 am 07:53 Sunny 76 24.4 66 18.9 72 72 NE 3 6 30.08 1019 10 16 0.00 0.00
8:53 am 08:53 Sunny 78 25.6 65 18.3 64 64 VRB 3 6 30.09 1019 10 16 0.00 0.00
9:53 am 09:53 Sunny 81 27.2 65 18.3 58 58 E 7 11 30.09 1019 10 16 0.00 0.00
10:53 am 10:53 Sunny 83 28.3 63 17.2 51 51 E 5 7 30.09 1019 10 16 0.00 0.00
11:53 am 11:53 Sunny 86 30 64 17.8 48 48 N 3 6 30.08 1019 10 16 0.00 0.00
12:53 pm 12:53 Mostly Sunny 87 30.6 65 18.3 48 48 NNE 3 6 30.07 1018 10 16 0.00 0.00
1:53 pm 13:53 Mostly Sunny 89 31.7 63 17.2 42 42 VRB 3 6 30.05 1018 10 16 0.00 0.00
2:53 pm 14:53 Mostly Sunny 89 31.7 65 18.3 45 45 NNW 7 11 30.04 1017 10 16 0.00 0.00
3:53 pm 15:53 Sunny 88 31.1 62 16.7 42 42 N 7 11 30.02 1017 10 16 0.00 0.00
4:53 pm 16:53 Sunny 88 31.1 60 15.6 39 39 VRB 7 11 30.01 1016 10 16 0.00 0.00
5:53 pm 17:53 Sunny 87 30.6 62 16.7 43 43 NNW 6 9 30.01 1016 10 16 0.00 0.00
6:53 pm 18:53 Sunny 83 28.3 62 16.7 49 49 N 5 7 30.01 1016 10 16 0.00 0.00
7:53 pm 19:53 Clear 80 26.7 62 16.7 54 54 N 6 9 30.03 1017 10 16 0.00 0.00
8:53 pm 20:53 Clear 78 25.6 62 16.7 58 58 VRB 3 6 30.04 1017 10 16 0.00 0.00
9:53 pm 21:53 Clear 77 25 62 16.7 60 60 VRB 6 9 30.06 1018 10 16 0.00 0.00
10:53 pm 22:53 Clear 76 24.4 61 16.1 60 60 VRB 6 9 30.06 1018 10 16 0.00 0.00
11:53 pm 23:53 Clear 74 23.3 60 15.6 62 62 ENE 5 7 30.07 1018 10 16 0.00 0.00

Powered by AerisWeather